Карточка аэропорта UATE

Внимание!
Информация на этой странице в стадии наполнения.
Если вы не увидели какой-то информации, или заметили неточность - пожалуйста сообщите нам!
Спасибо!
Команда RU-STAFF
Название аэропортаАктау
Название аэропорта (англ.)Aktau
Превышение75 ft. (22.9 m.)
Координаты43°51.138', 51°5.3639999999999'
Высота перехода10000ft
Эшелон переходаFL120, QNH<733:FL130
Коды ответчика3460-3467, 3550-3557
Зона ОрВДАктобе РПИ (UATT)
Данные METARUATE 090830Z 04009MPS CAVOK M03/M10 Q1032 NOSIG RMK QFE772/1030
Проноз погоды (TAF)UATE 090500Z 0906/1006 04006G12MPS 9999 SCT033 TXM04/0909Z TNM12/1002Z BECMG 1004/1006 VRB03MPS
NOTAMshow/hide NOTAM
AWOS   TABLE

Информация о ВПП

ВПП Длина ВПП (м.) Покрытие Курс ВПП Частота ILS
123052Асфальтобетон122109.5
303052Асфальт302111.1

Диспетчерские позиции

Позывной Наименование органа УВД Частота
UATE_APPАктау Поход134.3
UATE_TWRАктау Вышка120.7



Спутниковое изображение